RPT5 KMIA-TIST

Flight info

Callsign RPT5
Flight time 2h 13m
Altitude 35000
Route KLADA2 BITAC Y290 JETSS
Aircraft B738/M-SDE2E3FGHIRWXY/LB1

Departure

Time 2026-05-04 14:25
Airport Miami International Airport (KMIA)

Arrival

Time 2026-05-04 16:39
Airport Cyril E. King Airport (TIST)
Time Latitude Longitude Altitude Speed Heading
2026-05-04 14:07 25.79092 -80.27706 13 ft 0 kts 83°
2026-05-04 14:17 25.79091 -80.27714 12 ft 2 kts 83°
2026-05-04 14:17 25.79089 -80.27731 12 ft 2 kts 83°
2026-05-04 14:17 25.79091 -80.27763 12 ft 2 kts 126°
2026-05-04 14:18 25.79103 -80.27774 12 ft 2 kts 156°
2026-05-04 14:18 25.79122 -80.27776 12 ft 1 kts 189°
2026-05-04 14:19 25.79124 -80.27776 12 ft 0 kts 188°
2026-05-04 14:20 25.79115 -80.27776 12 ft 5 kts 188°
2026-05-04 14:20 25.79030 -80.27805 12 ft 18 kts 210°
2026-05-04 14:20 25.78957 -80.27905 12 ft 16 kts 282°
2026-05-04 14:21 25.79046 -80.28140 12 ft 22 kts 301°
2026-05-04 14:21 25.79133 -80.28290 12 ft 22 kts 305°
2026-05-04 14:21 25.79221 -80.28423 12 ft 21 kts 305°
2026-05-04 14:21 25.79298 -80.28558 12 ft 19 kts 300°
2026-05-04 14:22 25.79363 -80.28686 12 ft 18 kts 300°
2026-05-04 14:22 25.79424 -80.28800 13 ft 17 kts 298°
2026-05-04 14:22 25.79501 -80.28947 12 ft 27 kts 302°
2026-05-04 14:22 25.79606 -80.29164 12 ft 33 kts 291°
2026-05-04 14:23 25.79825 -80.29582 12 ft 29 kts 300°
2026-05-04 14:23 25.79897 -80.29755 12 ft 22 kts 284°
2026-05-04 14:23 25.79950 -80.29909 12 ft 20 kts 297°
2026-05-04 14:24 25.80002 -80.30048 12 ft 19 kts 292°
2026-05-04 14:24 25.80061 -80.30102 12 ft 7 kts 53°
2026-05-04 14:24 25.80074 -80.29975 12 ft 42 kts 89°
2026-05-04 14:24 25.80103 -80.29383 12 ft 111 kts 84°
2026-05-04 14:25 25.80154 -80.28295 13 ft 168 kts 89°
2026-05-04 14:25 25.80025 -80.25549 1322 ft 176 kts 102°
2026-05-04 14:25 25.79621 -80.24289 1929 ft 179 kts 108°
2026-05-04 14:26 25.79147 -80.22933 2242 ft 198 kts 109°
2026-05-04 14:26 25.78559 -80.21497 2640 ft 216 kts 113°
2026-05-04 14:26 25.77856 -80.19937 3017 ft 236 kts 116°
2026-05-04 14:26 25.76961 -80.18292 3383 ft 257 kts 119°
2026-05-04 14:27 25.76045 -80.16529 3884 ft 272 kts 117°
2026-05-04 14:27 25.75135 -80.14668 4564 ft 278 kts 118°
2026-05-04 14:27 25.74222 -80.12788 5337 ft 280 kts 118°
2026-05-04 14:27 25.73340 -80.10836 6054 ft 285 kts 114°
2026-05-04 14:28 25.72611 -80.08810 6747 ft 290 kts 111°
2026-05-04 14:28 25.71921 -80.06704 7428 ft 295 kts 110°
2026-05-04 14:28 25.71228 -80.04558 8142 ft 298 kts 110°
2026-05-04 14:28 25.70515 -80.02372 8766 ft 305 kts 111°
2026-05-04 14:29 25.69030 -79.97920 10080 ft 314 kts 112°
2026-05-04 14:29 25.67434 -79.93169 10799 ft 345 kts 112°
2026-05-04 14:30 25.66575 -79.90597 11113 ft 361 kts 111°
2026-05-04 14:30 25.65684 -79.87929 11324 ft 380 kts 111°
2026-05-04 14:30 25.63787 -79.82233 12112 ft 405 kts 111°
2026-05-04 14:31 25.62806 -79.79285 12760 ft 408 kts 111°
2026-05-04 14:31 25.60816 -79.73320 13937 ft 419 kts 112°
2026-05-04 14:32 25.58759 -79.67239 15291 ft 425 kts 114°
2026-05-04 14:32 25.57673 -79.64226 15868 ft 429 kts 114°
2026-05-04 14:32 25.56532 -79.61141 16515 ft 432 kts 114°
2026-05-04 14:32 25.55374 -79.58028 16989 ft 439 kts 115°
2026-05-04 14:33 25.54223 -79.54919 17634 ft 440 kts 114°
2026-05-04 14:33 25.53071 -79.51786 18164 ft 445 kts 115°
2026-05-04 14:33 25.51898 -79.48601 18693 ft 449 kts 114°
2026-05-04 14:33 25.50715 -79.45380 19193 ft 454 kts 114°
2026-05-04 14:34 25.49516 -79.42112 19720 ft 458 kts 114°
2026-05-04 14:34 25.48321 -79.38865 20304 ft 460 kts 113°
2026-05-04 14:34 25.47108 -79.35577 20754 ft 465 kts 114°
2026-05-04 14:34 25.45885 -79.32264 21163 ft 471 kts 114°
2026-05-04 14:35 25.44648 -79.28910 21727 ft 472 kts 114°
2026-05-04 14:35 25.43406 -79.25543 22197 ft 475 kts 113°
2026-05-04 14:35 25.42149 -79.22140 22484 ft 483 kts 113°
2026-05-04 14:35 25.40884 -79.18710 23040 ft 484 kts 114°
2026-05-04 14:36 25.39598 -79.15221 23454 ft 489 kts 114°
2026-05-04 14:36 25.38317 -79.11750 23972 ft 490 kts 114°
2026-05-04 14:36 25.37031 -79.08266 24249 ft 497 kts 114°
2026-05-04 14:36 25.35726 -79.04732 24669 ft 501 kts 114°
2026-05-04 14:37 25.34402 -79.01153 25206 ft 502 kts 114°
2026-05-04 14:37 25.33086 -78.97597 25625 ft 505 kts 114°
2026-05-04 14:37 25.31750 -78.94006 25965 ft 510 kts 114°
2026-05-04 14:37 25.30393 -78.90353 26452 ft 511 kts 114°
2026-05-04 14:38 25.29048 -78.86729 26758 ft 517 kts 114°
2026-05-04 14:38 25.27675 -78.83040 27218 ft 518 kts 114°
2026-05-04 14:38 25.26305 -78.79369 27575 ft 522 kts 114°
2026-05-04 14:38 25.24909 -78.75636 27879 ft 527 kts 114°
2026-05-04 14:39 25.23525 -78.71934 28267 ft 529 kts 114°
2026-05-04 14:39 25.22114 -78.68160 28838 ft 527 kts 114°
2026-05-04 14:39 25.20726 -78.64451 29498 ft 523 kts 114°
2026-05-04 14:40 25.17971 -78.57067 30646 ft 518 kts 115°
2026-05-04 14:40 25.16586 -78.53470 31162 ft 516 kts 116°
2026-05-04 14:40 25.15139 -78.49868 31636 ft 514 kts 117°
2026-05-04 14:40 25.13666 -78.46295 32148 ft 511 kts 118°
2026-05-04 14:41 25.12171 -78.42719 32622 ft 510 kts 118°
2026-05-04 14:41 25.10697 -78.39202 33028 ft 509 kts 118°
2026-05-04 14:41 25.07747 -78.32139 33883 ft 508 kts 119°
2026-05-04 14:42 25.04817 -78.25061 34598 ft 508 kts 120°
2026-05-04 14:42 25.03360 -78.21536 34785 ft 511 kts 120°
2026-05-04 14:42 25.01874 -78.17946 35008 ft 511 kts 120°
2026-05-04 14:43 24.98949 -78.10868 35021 ft 508 kts 120°
2026-05-04 14:43 24.96040 -78.03838 35026 ft 508 kts 120°
2026-05-04 14:44 24.93117 -77.96773 35029 ft 505 kts 120°
2026-05-04 14:44 24.90194 -77.89734 35031 ft 508 kts 120°
2026-05-04 14:45 24.87267 -77.82672 35024 ft 506 kts 120°
2026-05-04 14:45 24.84351 -77.75665 35028 ft 507 kts 120°
2026-05-04 14:46 24.81403 -77.68602 35027 ft 508 kts 120°
2026-05-04 14:46 24.78495 -77.61620 35031 ft 506 kts 120°
2026-05-04 14:47 24.75552 -77.54610 35026 ft 504 kts 120°
2026-05-04 14:47 24.72525 -77.47654 35032 ft 504 kts 122°
2026-05-04 14:48 24.69359 -77.40754 35027 ft 503 kts 123°
2026-05-04 14:48 24.66197 -77.33922 35027 ft 500 kts 123°
2026-05-04 14:49 24.63035 -77.27106 35025 ft 503 kts 123°
2026-05-04 14:49 24.59862 -77.20248 35028 ft 501 kts 123°
2026-05-04 14:50 24.56734 -77.13444 35034 ft 502 kts 123°
2026-05-04 14:50 24.53575 -77.06579 35024 ft 502 kts 122°
2026-05-04 14:51 24.50436 -76.99766 35027 ft 501 kts 123°
2026-05-04 14:51 24.47309 -76.92973 35025 ft 500 kts 123°
2026-05-04 14:52 24.44161 -76.86149 35028 ft 501 kts 122°
2026-05-04 14:52 24.41018 -76.79356 35030 ft 501 kts 123°
2026-05-04 14:53 24.37844 -76.72504 35024 ft 502 kts 122°
2026-05-04 14:53 24.34690 -76.65695 35026 ft 501 kts 122°
2026-05-04 14:54 24.31515 -76.58862 35030 ft 502 kts 122°
2026-05-04 14:54 24.28343 -76.52045 35022 ft 501 kts 122°
2026-05-04 14:55 24.25185 -76.45288 35028 ft 501 kts 122°
2026-05-04 14:55 24.21986 -76.38436 35021 ft 502 kts 122°
2026-05-04 14:56 24.19068 -76.32186 35024 ft 501 kts 122°
2026-05-04 14:56 24.15879 -76.25379 35025 ft 500 kts 122°
2026-05-04 14:57 24.12696 -76.18593 35026 ft 500 kts 122°
2026-05-04 14:57 24.09522 -76.11818 35030 ft 500 kts 123°
2026-05-04 14:58 24.06349 -76.05070 35027 ft 498 kts 122°
2026-05-04 14:58 24.03186 -75.98354 35024 ft 499 kts 122°
2026-05-04 14:59 23.99992 -75.91581 35023 ft 501 kts 122°
2026-05-04 15:00 23.95194 -75.81428 35029 ft 502 kts 122°
2026-05-04 15:00 23.91990 -75.74663 35029 ft 502 kts 122°
2026-05-04 15:01 23.87208 -75.64553 35029 ft 498 kts 122°
2026-05-04 15:01 23.84026 -75.57842 35032 ft 499 kts 123°
2026-05-04 15:02 23.80826 -75.51120 35025 ft 501 kts 123°
2026-05-04 15:02 23.77613 -75.44381 35030 ft 499 kts 122°
2026-05-04 15:03 23.74397 -75.37635 35038 ft 499 kts 123°
2026-05-04 15:03 23.71203 -75.30943 35040 ft 500 kts 123°
2026-05-04 15:04 23.67978 -75.24188 35036 ft 499 kts 123°
2026-05-04 15:04 23.64780 -75.17512 35040 ft 498 kts 123°
2026-05-04 15:05 23.61570 -75.10832 35039 ft 498 kts 123°
2026-05-04 15:05 23.58340 -75.04112 35036 ft 499 kts 123°
2026-05-04 15:06 23.55118 -74.97398 35039 ft 497 kts 123°
2026-05-04 15:07 23.50318 -74.87414 35035 ft 497 kts 123°
2026-05-04 15:07 23.47114 -74.80769 35028 ft 496 kts 123°
2026-05-04 15:08 23.43881 -74.74080 35027 ft 497 kts 123°
2026-05-04 15:08 23.40662 -74.67429 35026 ft 498 kts 123°
2026-05-04 15:09 23.37424 -74.60759 35029 ft 498 kts 123°
2026-05-04 15:09 23.34202 -74.54118 35026 ft 496 kts 122°
2026-05-04 15:10 23.29365 -74.44170 35030 ft 497 kts 122°
2026-05-04 15:11 23.24531 -74.34230 35027 ft 497 kts 123°
2026-05-04 15:11 23.21284 -74.27571 35025 ft 495 kts 122°
2026-05-04 15:12 23.18054 -74.20963 35026 ft 497 kts 122°
2026-05-04 15:12 23.14809 -74.14323 35030 ft 496 kts 123°
2026-05-04 15:13 23.11585 -74.07725 35029 ft 494 kts 122°
2026-05-04 15:13 23.08357 -74.01135 35027 ft 496 kts 122°
2026-05-04 15:14 23.05114 -73.94553 35028 ft 494 kts 122°
2026-05-04 15:14 23.01867 -73.87956 35029 ft 495 kts 122°
2026-05-04 15:15 22.98625 -73.81364 35028 ft 494 kts 122°
2026-05-04 15:15 22.95409 -73.74841 35029 ft 493 kts 122°
2026-05-04 15:16 22.90551 -73.64989 35028 ft 493 kts 122°
2026-05-04 15:17 22.85689 -73.55170 35029 ft 493 kts 122°
2026-05-04 15:17 22.80806 -73.45319 35030 ft 493 kts 122°
2026-05-04 15:18 22.77562 -73.38787 35037 ft 494 kts 122°
2026-05-04 15:19 22.72693 -73.28990 35040 ft 493 kts 122°
2026-05-04 15:19 22.67804 -73.19179 35043 ft 493 kts 122°
2026-05-04 15:20 22.64562 -73.12689 35041 ft 491 kts 122°
2026-05-04 15:20 22.61307 -73.06182 35040 ft 490 kts 122°
2026-05-04 15:21 22.58067 -72.99713 35040 ft 490 kts 122°
2026-05-04 15:22 22.53189 -72.89972 35041 ft 493 kts 122°
2026-05-04 15:22 22.48292 -72.80220 35035 ft 490 kts 122°
2026-05-04 15:23 22.45046 -72.73772 35029 ft 491 kts 122°
2026-05-04 15:23 22.41776 -72.67283 35024 ft 489 kts 122°
2026-05-04 15:24 22.35275 -72.54401 35018 ft 489 kts 122°
2026-05-04 15:25 22.32005 -72.47926 35016 ft 490 kts 121°
2026-05-04 15:26 22.27108 -72.38242 35015 ft 490 kts 122°
2026-05-04 15:26 22.22215 -72.28591 35009 ft 489 kts 122°
2026-05-04 15:27 22.17326 -72.18973 35010 ft 488 kts 122°
2026-05-04 15:28 22.12427 -72.09359 35008 ft 487 kts 122°
2026-05-04 15:29 22.07547 -71.99795 35009 ft 487 kts 122°
2026-05-04 15:30 21.96115 -71.77439 35013 ft 485 kts 122°
2026-05-04 15:31 21.91237 -71.67941 35014 ft 485 kts 122°
2026-05-04 15:32 21.83045 -71.52024 35018 ft 486 kts 122°
2026-05-04 15:34 21.74868 -71.36163 35021 ft 486 kts 122°
2026-05-04 15:34 21.69925 -71.26613 35024 ft 486 kts 122°
2026-05-04 15:35 21.65024 -71.17152 35027 ft 485 kts 122°
2026-05-04 15:36 21.60092 -71.07651 35028 ft 486 kts 122°
2026-05-04 15:36 21.56788 -71.01323 35028 ft 484 kts 124°
2026-05-04 15:37 21.53099 -70.95309 35029 ft 481 kts 128°
2026-05-04 15:37 21.49237 -70.89430 35029 ft 482 kts 128°
2026-05-04 15:38 21.45402 -70.83585 35029 ft 480 kts 128°
2026-05-04 15:38 21.41577 -70.77679 35029 ft 482 kts 128°
2026-05-04 15:39 21.37779 -70.71757 35028 ft 482 kts 127°
2026-05-04 15:40 21.32119 -70.62909 35029 ft 481 kts 127°
2026-05-04 15:40 21.28330 -70.56979 35028 ft 481 kts 127°
2026-05-04 15:41 21.24569 -70.51103 35028 ft 481 kts 127°
2026-05-04 15:41 21.20760 -70.45158 35027 ft 481 kts 127°
2026-05-04 15:42 21.16997 -70.39289 35032 ft 481 kts 127°
2026-05-04 15:42 21.13202 -70.33385 35038 ft 480 kts 127°
2026-05-04 15:43 21.09413 -70.27495 35044 ft 480 kts 127°
2026-05-04 15:43 21.05622 -70.21601 35044 ft 480 kts 127°
2026-05-04 15:44 21.01832 -70.15720 35046 ft 479 kts 127°
2026-05-04 15:44 20.98048 -70.09849 35045 ft 478 kts 127°
2026-05-04 15:45 20.94261 -70.03989 35045 ft 479 kts 127°
2026-05-04 15:45 20.90479 -69.98141 35047 ft 478 kts 127°
2026-05-04 15:46 20.86690 -69.92284 35046 ft 479 kts 127°
2026-05-04 15:46 20.82912 -69.86455 35045 ft 477 kts 127°
2026-05-04 15:47 20.79134 -69.80625 35046 ft 478 kts 127°
2026-05-04 15:47 20.75361 -69.74805 35045 ft 477 kts 127°
2026-05-04 15:48 20.71572 -69.68970 35043 ft 476 kts 127°
2026-05-04 15:48 20.65921 -69.60279 35046 ft 475 kts 127°
2026-05-04 15:49 20.62147 -69.54479 35045 ft 475 kts 127°
2026-05-04 15:49 20.58394 -69.48725 35044 ft 473 kts 127°
2026-05-04 15:50 20.54619 -69.42944 35046 ft 475 kts 127°
2026-05-04 15:50 20.50843 -69.37161 35046 ft 473 kts 127°
2026-05-04 15:51 20.47079 -69.31406 35046 ft 473 kts 127°
2026-05-04 15:51 20.43301 -69.25639 35046 ft 474 kts 127°
2026-05-04 15:52 20.39541 -69.19898 35046 ft 472 kts 127°
2026-05-04 15:52 20.35810 -69.14201 35047 ft 472 kts 127°
2026-05-04 15:53 20.32052 -69.08477 35047 ft 471 kts 127°
2026-05-04 15:53 20.28282 -69.02743 35049 ft 470 kts 127°
2026-05-04 15:54 20.24536 -68.97055 35049 ft 470 kts 127°
2026-05-04 15:54 20.20781 -68.91355 35050 ft 471 kts 127°
2026-05-04 15:55 20.17032 -68.85667 35049 ft 470 kts 127°
2026-05-04 15:55 20.13274 -68.79966 35049 ft 470 kts 127°
2026-05-04 15:56 20.09531 -68.74298 35050 ft 470 kts 127°
2026-05-04 15:56 20.05819 -68.68536 35049 ft 470 kts 125°
2026-05-04 15:57 20.02244 -68.62734 35050 ft 470 kts 124°
2026-05-04 15:57 19.98681 -68.56918 35049 ft 470 kts 124°
2026-05-04 15:58 19.95122 -68.51136 35049 ft 469 kts 124°
2026-05-04 15:58 19.91545 -68.45355 35044 ft 469 kts 124°
2026-05-04 15:59 19.87937 -68.39542 35047 ft 470 kts 124°
2026-05-04 15:59 19.84345 -68.33763 35049 ft 470 kts 125°
2026-05-04 16:00 19.80742 -68.27972 35049 ft 468 kts 124°
2026-05-04 16:00 19.77156 -68.22212 35046 ft 469 kts 125°
2026-05-04 16:01 19.73561 -68.16447 35048 ft 468 kts 124°
2026-05-04 16:01 19.69981 -68.10711 35049 ft 469 kts 125°
2026-05-04 16:02 19.66373 -68.04938 35051 ft 468 kts 124°
2026-05-04 16:03 19.60974 -67.96308 35050 ft 468 kts 124°
2026-05-04 16:03 19.57382 -67.90574 35050 ft 467 kts 124°
2026-05-04 16:04 19.54199 -67.84614 34894 ft 463 kts 114°
2026-05-04 16:04 19.52019 -67.78339 34315 ft 446 kts 109°
2026-05-04 16:04 19.51066 -67.75247 34028 ft 438 kts 109°
2026-05-04 16:05 19.50132 -67.72211 33742 ft 430 kts 109°
2026-05-04 16:05 19.49198 -67.69233 33455 ft 422 kts 109°
2026-05-04 16:05 19.47311 -67.63454 32884 ft 407 kts 110°
2026-05-04 16:06 19.46369 -67.60652 32607 ft 400 kts 110°
2026-05-04 16:06 19.43864 -67.53346 31943 ft 400 kts 110°
2026-05-04 16:07 19.42584 -67.49638 31609 ft 404 kts 110°
2026-05-04 16:07 19.39691 -67.41267 30860 ft 406 kts 110°
2026-05-04 16:08 19.38722 -67.38469 30610 ft 408 kts 110°
2026-05-04 16:08 19.35783 -67.30006 29859 ft 409 kts 110°
2026-05-04 16:09 19.33811 -67.24329 29361 ft 412 kts 110°
2026-05-04 16:09 19.31828 -67.18625 28858 ft 415 kts 110°
2026-05-04 16:10 19.29831 -67.12891 28360 ft 416 kts 110°
2026-05-04 16:11 19.26882 -67.04443 27619 ft 404 kts 110°
2026-05-04 16:11 19.25905 -67.01650 27374 ft 403 kts 110°
2026-05-04 16:12 19.23031 -66.93418 26639 ft 396 kts 110°
2026-05-04 16:12 19.20184 -66.85284 25900 ft 389 kts 110°
2026-05-04 16:13 19.18321 -66.79967 25410 ft 385 kts 110°
2026-05-04 16:13 19.16470 -66.74691 24918 ft 380 kts 110°
2026-05-04 16:14 19.14646 -66.69499 24426 ft 376 kts 110°
2026-05-04 16:14 19.12840 -66.64361 23937 ft 370 kts 110°
2026-05-04 16:15 19.10170 -66.56780 23208 ft 364 kts 110°
2026-05-04 16:16 19.08413 -66.51794 22722 ft 358 kts 110°
2026-05-04 16:16 19.05834 -66.44481 22014 ft 353 kts 110°
2026-05-04 16:17 19.04113 -66.39616 21548 ft 352 kts 111°
2026-05-04 16:18 19.01538 -66.32338 20850 ft 353 kts 111°
2026-05-04 16:18 19.00677 -66.29898 20616 ft 353 kts 111°
2026-05-04 16:19 18.98112 -66.22662 19907 ft 351 kts 111°
2026-05-04 16:19 18.96405 -66.17858 19442 ft 349 kts 111°
2026-05-04 16:20 18.93855 -66.10680 18733 ft 348 kts 111°
2026-05-04 16:20 18.92147 -66.05873 18279 ft 349 kts 112°
2026-05-04 16:21 18.89602 -65.98722 17563 ft 346 kts 112°
2026-05-04 16:22 18.87898 -65.93949 17072 ft 345 kts 112°
2026-05-04 16:22 18.85402 -65.86951 16347 ft 339 kts 112°
2026-05-04 16:23 18.82918 -65.80003 15629 ft 333 kts 112°
2026-05-04 16:24 18.79687 -65.70969 14657 ft 324 kts 111°
2026-05-04 16:25 18.78103 -65.66557 14185 ft 321 kts 112°
2026-05-04 16:26 18.74996 -65.57905 13227 ft 312 kts 111°
2026-05-04 16:26 18.72400 -65.51714 12462 ft 306 kts 131°
2026-05-04 16:27 18.69249 -65.48749 11879 ft 300 kts 141°
2026-05-04 16:28 18.64354 -65.44707 11020 ft 296 kts 142°
2026-05-04 16:28 18.59423 -65.40691 9958 ft 287 kts 142°
2026-05-04 16:29 18.53497 -65.35922 9021 ft 249 kts 142°
2026-05-04 16:30 18.49441 -65.32732 7913 ft 237 kts 142°
2026-05-04 16:31 18.48108 -65.31702 7528 ft 234 kts 142°
2026-05-04 16:31 18.42840 -65.27695 5956 ft 223 kts 142°
2026-05-04 16:32 18.39109 -65.24904 4841 ft 216 kts 142°
2026-05-04 16:33 18.36686 -65.23096 4090 ft 207 kts 142°
2026-05-04 16:33 18.34371 -65.21375 3334 ft 203 kts 141°
2026-05-04 16:34 18.32968 -65.18934 2570 ft 200 kts 98°
2026-05-04 16:34 18.32909 -65.17509 2437 ft 188 kts 91°
2026-05-04 16:35 18.33026 -65.13653 2467 ft 174 kts 90°
2026-05-04 16:35 18.33192 -65.09819 2092 ft 172 kts 89°
2026-05-04 16:36 18.33244 -65.08611 1854 ft 158 kts 89°
2026-05-04 16:36 18.33338 -65.06408 1467 ft 149 kts 89°
2026-05-04 16:37 18.33432 -65.04285 1080 ft 139 kts 90°
2026-05-04 16:37 18.33474 -65.03258 926 ft 142 kts 90°
2026-05-04 16:37 18.33583 -65.01159 564 ft 143 kts 91°
2026-05-04 16:38 18.33664 -64.99056 194 ft 145 kts 92°
2026-05-04 16:39 18.33750 -64.96795 31 ft 33 kts 91°
2026-05-04 16:39 18.33689 -64.96700 29 ft 7 kts 227°
2026-05-04 16:40 18.33675 -64.96938 31 ft 24 kts 266°
2026-05-04 16:40 18.33639 -64.97218 30 ft 13 kts 238°
2026-05-04 16:41 18.33570 -64.97249 29 ft 2 kts 181°
2026-05-04 16:41 18.33566 -64.97249 29 ft 0 kts 180°